Regional Weather Roundup
Issued by NWS

Home | Current Version | Previous Version | Text Only | Print | Product List | Glossary Off
Versions: 1 2 3 4 5 6 7 8 9 10 11 12 13 14 15 16 17 18 19 20 21 22 23 24 25 26 27 28 29 30 31 32 33 34 35 36 37 38 39 40 41 42 43 44 45 46 47 48 49 50

000
ASUS43 KOAX 170902
RWRNE

WEATHER ROUNDUP FOR NEBRASKA
NATIONAL WEATHER SERVICE OMAHA NE
400 AM CDT THU AUG 17 2017

NOTES: SATELLITE DATA IS BEING USED TO AUGMENT CLOUD COVER ABOVE
       12000 FEET.
       "FAIR" INDICATES FEW OR NO CLOUDS BELOW 12,000 FEET WITH NO
       SIGNIFICANT WEATHER AND/OR OBSTRUCTIONS TO VISIBILITY.


NEZ001>004-019>022-054>056-171000-
NEBRASKA PANHANDLE

CITY           SKY/WX    TMP DP  RH WIND       PRES   REMARKS
SCOTTSBLUFF    CLEAR     54  49  83 E7        30.06S
ALLIANCE       CLEAR     47  46  97 SW5       30.05S
CHADRON        CLEAR     51  48  89 CALM      30.00S
GORDON         FAIR      48  46  90 CALM      30.03R
KIMBALL        CLEAR     54  52  92 SW9       30.13S
SIDNEY         CLEAR     50  48  93 CALM      30.10S
$$

NEZ057>060-069>072-079>082-171000-
SOUTHWEST NEBRASKA

CITY           SKY/WX    TMP DP  RH WIND       PRES   REMARKS
NORTH PLATTE   CLEAR     52  51  97 NW5       30.04R
IMPERIAL       CLEAR     54  51  90 CALM      30.07R
LEXINGTON      CLEAR     55  53  94 NW7       30.00S
MCCOOK         CLEAR     59  58  96 W9        30.03R
OGALLALA       CLEAR     52  51  96 W3        30.06S
$$

NEZ005>010-023>029-035>040-094-171000-
NORTH CENTRAL NEBRASKA

CITY           SKY/WX    TMP DP  RH WIND       PRES   REMARKS
VALENTINE      CLEAR     52  46  80 W6        29.98S
AINSWORTH      CLEAR     52  50  93 W7        29.97S
BROKEN BOW     CLEAR     52  50  93 N5        29.98F
O`NEILL        CLEAR     57  56  96 W8        29.91S
ORD            CLEAR     57  52  83 W6        29.93F
THEDFORD       CLEAR     53  51  94 W5        30.03R
$$

NEZ041-046>049-061>064-073>077-083>087-171000-
SOUTH CENTRAL NEBRASKA

CITY           SKY/WX    TMP DP  RH WIND       PRES   REMARKS
GRAND ISLAND   CLEAR     59  58  96 W8        29.95R
AURORA         CLEAR     59  59  99 W5        29.93R
HASTINGS       CLEAR     58  56  93 W5        29.97R
HEBRON         CLEAR     63  60  93 W5        29.93S
HOLDREGE       CLEAR     57  54  89 W6        29.99S
KEARNEY        CLEAR     59  55  87 W7        29.98S
YORK           CLEAR     61  59  94 W8        29.92R
$$

NEZ011>018-030>034-042>045-171000-
NORTHEAST NEBRASKA

CITY           SKY/WX    TMP DP  RH WIND       PRES   REMARKS
NORFOLK        CLEAR     60  57  89 W12       29.86R
ALBION         CLEAR     60  57  91 NW5       29.90S
BLAIR          HVY RAIN  65  62  91 W9        29.83S
COLUMBUS       CLEAR     62  59  90 W12       29.89R
FREMONT        CLEAR     64  61  92 W13       29.85R
TEKAMAH        CLOUDY    66  62  87 W6        29.81S
WAYNE          CLEAR     63  60  91 W8        29.83R
$$

NEZ050>053-065>068-078-088>093-171000-
SOUTHEAST NEBRASKA

CITY           SKY/WX    TMP DP  RH WIND       PRES   REMARKS
LINCOLN        CLEAR     64  60  87 W6        29.89R
OMAHA EPPLEY   PTCLDY    66  60  81 W7        29.82S
BEATRICE       CLEAR     63  62  94 W8        29.90R
FALLS CITY     CLEAR     64  61  90 W7        29.87R
NEBRASKA CITY  CLEAR     62  62 100 W8        29.85F
PLATTSMOUTH    CLEAR     62  60  93 W5        29.85S
$$

NEZ044-045-051>053-067-171000-
OMAHA AREA

CITY           SKY/WX    TMP DP  RH WIND       PRES   REMARKS
OMAHA EPPLEY   PTCLDY    66  60  81 W7        29.82S
BLAIR          HVY RAIN  65  62  91 W9        29.83S
FREMONT        CLEAR     64  61  92 W13       29.85R
MILLARD        CLEAR     66  62  87 W8        29.84R
OFFUTT AFB     CLEAR     64  60  87 SW8       29.83R
PLATTSMOUTH    CLEAR     62  60  93 W5        29.85S
WAHOO          FAIR      64  62  91 W10       29.85R
$$




USA.gov is the U.S. government's official web portal to all federal, state and local government web resources and services.